Change the Weather History Date:

Thursday, March 13, 2014

  Actual Average Record
Temperature  
Mean Temperature 22 °F -  
Max Temperature 30 °F 30 °F 46 °F (2005)
Min Temperature 15 °F 19 °F -2 °F (1999)
Degree Days  
Heating Degree Days 42    
Moisture  
Dew Point 11 °F    
Average Humidity 67    
Maximum Humidity 80    
Minimum Humidity 53    
Precipitation  
Precipitation 0.00 in - - ()
Sea Level Pressure  
Sea Level Pressure 29.14 in    
Wind  
Wind Speed 17 mph (WNW)    
Max Wind Speed 26 mph    
Max Gust Speed 34 mph    
Visibility 3 miles    
Events      
Averages and records for this station are not official NWS values.
T = Trace of Precipitation, MM = Missing Value Source: NWS Daily Summary

Daily Weather History Graph

Daily Weather History Graph

Search for Another Location

Airport or City:

Trip Planner

Search our weather history database for the weather conditions in past years. The results will help you decide how hot, cold, wet, or windy it might be!

Date:

Astronomy

Mar. 13, 2014 Rise Set
Actual Time 8:54 AM AKDT 8:34 PM AKDT
Civil Twilight 8:16 AM AKDT 9:12 PM AKDT
Nautical Twilight 7:32 AM AKDT 9:56 PM AKDT
Astronomical Twilight 6:46 AM AKDT 10:43 PM AKDT
Moon 5:49 PM AKDT (3/13) 7:33 AM AKDT (3/13)
Length of Visible Light 12h 55m
Length of Day
11h 39m
Waxing Gibbous, 92% of the Moon is Illuminated
Mar 13
Waxing Gibbous
Mar 16
Full
Mar 23
Last Quarter
Mar 30
New
Apr 7
First Quarter

Hourly Weather History & Observations

Time (AKDT) Temp. Windchill Dew Point Humidity Pressure Visibility Wind Dir Wind Speed Gust Speed Precip Events Conditions
12:16 AM 28.4 °F 17.5 °F 21.2 °F 74% 28.87 in 1.5 mi WNW 13.8 mph - N/A   Overcast
12:36 AM 28.4 °F 17.5 °F 21.2 °F 74% 28.88 in 2.5 mi WNW 13.8 mph - N/A   Overcast
12:56 AM 26.6 °F 14.7 °F 21.2 °F 80% 28.89 in 3.0 mi WNW 15.0 mph - N/A   Overcast
1:16 AM 26.6 °F 15.2 °F 19.4 °F 74% 28.90 in 10.0 mi WNW 13.8 mph - N/A   Overcast
1:36 AM 26.6 °F 15.7 °F 19.4 °F 74% 28.92 in 10.0 mi WNW 12.7 mph - N/A   Overcast
1:56 AM 26.6 °F 16.8 °F 19.4 °F 74% 28.93 in 10.0 mi West 10.4 mph - N/A   Overcast
2:16 AM 26.6 °F 16.8 °F 19.4 °F 74% 28.94 in 7.0 mi West 10.4 mph - N/A   Overcast
2:36 AM 26.6 °F 16.8 °F 19.4 °F 74% 28.94 in 4.0 mi West 10.4 mph - N/A   Overcast
2:56 AM 26.6 °F 16.8 °F 19.4 °F 74% 28.95 in 8.0 mi West 10.4 mph - N/A   Overcast
3:16 AM 26.6 °F 16.2 °F 19.4 °F 74% 28.96 in 10.0 mi West 11.5 mph - N/A   Overcast
3:36 AM 26.6 °F 16.8 °F 17.6 °F 69% 28.96 in 10.0 mi West 10.4 mph - N/A   Overcast
3:56 AM 26.6 °F 16.2 °F 17.6 °F 69% 28.96 in 10.0 mi West 11.5 mph - N/A   Overcast
4:16 AM 26.6 °F 15.7 °F 17.6 °F 69% 28.96 in 8.0 mi West 12.7 mph - N/A   Overcast
4:36 AM 26.6 °F 16.2 °F 17.6 °F 69% 28.97 in 8.0 mi West 11.5 mph - N/A   Overcast
4:56 AM 24.8 °F 13.4 °F 17.6 °F 74% 28.98 in 10.0 mi West 12.7 mph - N/A   Overcast
5:16 AM 24.8 °F 12.9 °F 17.6 °F 74% 28.98 in 10.0 mi West 13.8 mph - N/A   Overcast
5:36 AM 24.8 °F 12.9 °F 15.8 °F 69% 28.99 in 10.0 mi West 13.8 mph - N/A   Overcast
5:56 AM 24.8 °F 12.9 °F 15.8 °F 69% 29.00 in 8.0 mi West 13.8 mph - N/A   Overcast
6:16 AM 23.0 °F 9.6 °F 14.0 °F 68% 29.01 in 10.0 mi West 16.1 mph - N/A   Overcast
6:36 AM 23.0 °F 9.6 °F 14.0 °F 68% 29.02 in 5.0 mi West 16.1 mph - N/A   Overcast
6:56 AM 21.2 °F 7.3 °F 14.0 °F 74% 29.02 in 2.5 mi WNW 16.1 mph - N/A   Overcast
7:16 AM 21.2 °F 6.8 °F 14.0 °F 74% 29.03 in 5.0 mi WNW 17.3 mph - N/A   Overcast
7:36 AM 21.2 °F 6.4 °F 12.2 °F 68% 29.04 in 3.0 mi WNW 18.4 mph - N/A   Overcast
7:56 AM 21.2 °F 7.3 °F 12.2 °F 68% 29.05 in 2.0 mi WNW 16.1 mph - N/A   Overcast
8:16 AM 21.2 °F 6.8 °F 12.2 °F 68% 29.06 in 1.0 mi WNW 17.3 mph - N/A   Overcast
8:36 AM 19.4 °F 3.6 °F 12.2 °F 74% 29.07 in 1.2 mi WNW 19.6 mph - N/A   Overcast
8:56 AM 19.4 °F 2.8 °F 10.4 °F 68% 29.08 in 0.8 mi West 21.9 mph 26.5 mph N/A   Overcast
9:16 AM 19.4 °F 2.5 °F 10.4 °F 68% 29.09 in 1.0 mi West 23.0 mph - N/A   Overcast
9:36 AM 19.4 °F 3.2 °F 12.2 °F 74% 29.10 in 1.8 mi WNW 20.7 mph - N/A   Overcast
9:56 AM 19.4 °F 3.6 °F 10.4 °F 68% 29.11 in 1.8 mi WNW 19.6 mph - N/A   Overcast
10:16 AM 19.4 °F 4.1 °F 10.4 °F 68% 29.12 in 1.2 mi WNW 18.4 mph - N/A   Overcast
10:36 AM 19.4 °F 2.8 °F 12.2 °F 74% 29.13 in 0.8 mi West 21.9 mph - N/A   Overcast
10:56 AM 19.4 °F 4.1 °F 10.4 °F 68% 29.13 in 1.5 mi WNW 18.4 mph 23.0 mph N/A   Overcast
11:16 AM 19.4 °F 3.2 °F 10.4 °F 68% 29.15 in 1.8 mi West 20.7 mph - N/A   Overcast
11:36 AM 19.4 °F 3.2 °F 10.4 °F 68% 29.16 in 1.2 mi West 20.7 mph - N/A   Overcast
11:56 AM 19.4 °F 3.2 °F 10.4 °F 68% 29.16 in 2.5 mi WNW 20.7 mph 26.5 mph N/A   Mostly Cloudy
12:16 PM 19.4 °F 3.2 °F 10.4 °F 68% 29.17 in 1.0 mi WNW 20.7 mph 31.1 mph N/A   Overcast
12:36 PM 19.4 °F 2.5 °F 10.4 °F 68% 29.17 in 0.5 mi West 23.0 mph 28.8 mph N/A   Overcast
12:56 PM 19.4 °F 3.2 °F 10.4 °F 68% 29.18 in 1.5 mi WNW 20.7 mph 25.3 mph N/A   Overcast
1:16 PM 19.4 °F 2.8 °F 10.4 °F 68% 29.19 in 0.8 mi WNW 21.9 mph 31.1 mph N/A   Overcast
1:36 PM 19.4 °F 3.2 °F 10.4 °F 68% 29.19 in 1.2 mi West 20.7 mph 27.6 mph N/A   Overcast
1:56 PM 19.4 °F 2.5 °F 10.4 °F 68% 29.20 in 0.8 mi West 23.0 mph 27.6 mph N/A   Overcast
2:16 PM 19.4 °F 1.8 °F 10.4 °F 68% 29.21 in 0.2 mi West 25.3 mph - N/A   Overcast
2:36 PM 19.4 °F 2.1 °F 10.4 °F 68% 29.22 in 0.2 mi West 24.2 mph 31.1 mph N/A   Overcast
2:56 PM 19.4 °F 2.5 °F 10.4 °F 68% 29.23 in 1.0 mi West 23.0 mph 27.6 mph N/A   Overcast
3:16 PM 19.4 °F 2.5 °F 8.6 °F 63% 29.24 in 1.0 mi West 23.0 mph 28.8 mph N/A   Overcast
3:36 PM 17.6 °F 0.1 °F 8.6 °F 68% 29.24 in 0.5 mi WNW 23.0 mph 28.8 mph N/A   Overcast
3:56 PM 17.6 °F 0.5 °F 8.6 °F 68% 29.25 in 0.2 mi WNW 21.9 mph - N/A   Overcast
4:16 PM 17.6 °F 0.5 °F 8.6 °F 68% 29.25 in 0.5 mi WNW 21.9 mph 29.9 mph N/A   Overcast
4:36 PM 17.6 °F -1.0 °F 8.6 °F 68% 29.26 in 0.8 mi West 26.5 mph 33.4 mph N/A   Overcast
4:56 PM 17.6 °F -0.6 °F 8.6 °F 68% 29.27 in 0.8 mi West 25.3 mph 32.2 mph N/A   Overcast
5:16 PM 17.6 °F 0.1 °F 8.6 °F 68% 29.27 in 1.0 mi WNW 23.0 mph - N/A   Overcast
5:36 PM 17.6 °F 0.1 °F 8.6 °F 68% 29.27 in 0.2 mi WNW 23.0 mph 28.8 mph N/A   Overcast
5:56 PM 17.6 °F 0.1 °F 6.8 °F 63% 29.28 in 1.0 mi West 23.0 mph 29.9 mph N/A   Overcast
6:16 PM 17.6 °F -0.3 °F 5.0 °F 58% 29.28 in 1.5 mi WNW 24.2 mph 32.2 mph N/A   Overcast
6:36 PM 17.6 °F -0.6 °F 3.2 °F 53% 29.29 in 2.5 mi WNW 25.3 mph 28.8 mph N/A   Overcast
6:56 PM 17.6 °F -0.6 °F 6.8 °F 63% 29.29 in 0.5 mi West 25.3 mph 31.1 mph N/A   Overcast
7:16 PM 17.6 °F 0.1 °F 3.2 °F 53% 29.29 in 2.5 mi WNW 23.0 mph 32.2 mph N/A   Overcast
7:36 PM 17.6 °F 0.9 °F 5.0 °F 58% 29.29 in 2.0 mi West 20.7 mph 26.5 mph N/A   Overcast
7:56 PM 15.8 °F -1.9 °F 6.8 °F 68% 29.30 in 0.5 mi WNW 21.9 mph 33.4 mph N/A   Overcast
8:16 PM 15.8 °F -2.7 °F 5.0 °F 62% 29.30 in 1.2 mi West 24.2 mph 31.1 mph N/A   Overcast
8:36 PM 15.8 °F -2.3 °F 5.0 °F 62% 29.31 in 1.0 mi WNW 23.0 mph 32.2 mph N/A   Overcast
8:56 PM 15.8 °F -1.5 °F 5.0 °F 62% 29.31 in 1.2 mi WNW 20.7 mph 31.1 mph N/A   Overcast
9:16 PM 15.8 °F -3.1 °F 5.0 °F 62% 29.32 in 2.0 mi West 25.3 mph 32.2 mph N/A   Overcast
9:36 PM 15.8 °F -3.1 °F 3.2 °F 58% 29.32 in 2.5 mi West 25.3 mph 29.9 mph N/A   Mostly Cloudy
9:56 PM 15.8 °F -2.3 °F 8.6 °F 73% 29.32 in 0.5 mi West 23.0 mph 32.2 mph N/A   Overcast
10:16 PM 15.8 °F -1.9 °F 5.0 °F 62% 29.32 in 1.0 mi West 21.9 mph 34.5 mph N/A   Overcast
10:36 PM 15.8 °F -3.4 °F 5.0 °F 62% 29.33 in 1.0 mi West 26.5 mph 33.4 mph N/A   Overcast
10:56 PM 15.8 °F -2.7 °F 5.0 °F 62% 29.33 in 1.8 mi WNW 24.2 mph 31.1 mph N/A   Overcast
11:16 PM 15.8 °F -2.7 °F 3.2 °F 58% 29.33 in 2.0 mi West 24.2 mph 32.2 mph N/A   Overcast
11:36 PM 15.8 °F -2.3 °F 5.0 °F 62% 29.33 in 2.5 mi WNW 23.0 mph 31.1 mph N/A   Overcast
11:56 PM 15.8 °F -3.4 °F 1.4 °F 53% 29.34 in 3.0 mi West 26.5 mph 33.4 mph N/A   Mostly Cloudy